星链-5432 (STARLINK-5432 )

导读 | 豆包AI

STARLINK-5432是美国SpaceX公司星链星座的一颗低轨通信卫星,于2022年12月28日发射。作为星链巨型互联网星座的组成部分,它运行在近地轨道,搭载先进通信载荷,依托氪工质霍尔推进器完成轨道维持与离轨,旨在为全球提供高速低延迟互联网覆盖,助力填补偏远地区网络鸿沟,目前处于在轨运行状态。

基本信息
目录编号:
54848
目录名称:
STARLINK-5432
国际标识:
2022-177AE
轨道中心:
EARTH
卫星名称:
星链-5432
卫星全名:
星链-5432 (STARLINK-5432 )
卫星状态:
在轨 (已飞行1219 天)
发射日期:
2022-12-28 UTC
国别 :
美国 (US)
星等 :
--
轨道信息
数据来源 国际轨道数据 AOE轨道数据
星历时间 2026-04-30T05:55:56+0800
15小时前
查看轨道信息
2026-04-28T08:00:00+0800
2天前
查看轨道信息
半长轴 6861.246km 6861.181km
偏心率 0.0001666 0.0001845
轨道倾角 43.003° 43.004°
近地点辐角 287.141° 279.520°
升交点赤经 192.391° 203.200°
平近点角 72.926° 343.571°
近地点 481.965km 481.778km
远地点 484.253km 484.31km
周期 94.268分钟 94.267分钟
每日圈数 15.275603 15.27582
详细信息
固有亮度:
5
最大亮度:
2.5
卫星平台:
Starlink v1.5
覆盖范围:
全球
运营商:
太空探索技术公司
运营商所在国:
美国
制造商(研发单位):
太空探索技术公司
制造商所在国:
美国
使用方式:
暂无
卫星简介
星链(Starlink)计划是由太空探索技术公司(SpaceX)提出的一个巨型低轨卫星互联网星座项目,计划在2019年至2024年间在太空搭建由约1.2万颗卫星组成的“星链”网络,其中1584颗将部署在地球上空550千米处的近地轨道,并从2020年开始工作。该卫星仍在工作。
2D轨道图
3D轨道图
轨道高度分析图
轨道倾角分析图
轨道综合分析图
查看轨道综合分析图